| time (UTC) | temp C | wind direction | speed KPH | gust KPH | rain 1hr cm | rain 24hr cm | rain mn cm | humidity % | barometer mb |
| 20260904223030 | 37 | 268 | 1.6 | 8.0 | 0.00 | 0.00 | 0.00 | 61 | 1014.1 |
| 20260904221524 | 38 | 249 | 3.2 | 6.4 | 0.00 | 0.00 | 0.00 | 60 | 1014.1 |
| 20260904220021 | 37 | 282 | 0.0 | 6.4 | 0.00 | 0.00 | 0.00 | 61 | 1014.3 |
| 20260904214532 | 37 | 357 | 4.8 | 12.9 | 0.00 | 0.00 | 0.00 | 61 | 1014.4 |
| 20260904213030 | 38 | 251 | 1.6 | 4.8 | 0.00 | 0.00 | 0.00 | 61 | 1014.5 |
| 20260904211518 | 38 | 321 | 0.0 | 4.8 | 0.00 | 0.00 | 0.00 | 60 | 1014.8 |
| 20260904210022 | 37 | 306 | 0.0 | 14.5 | 0.00 | 0.00 | 0.00 | 59 | 1015.0 |
| 20260904204514 | 38 | 186 | 1.6 | 9.7 | 0.00 | 0.00 | 0.00 | 58 | 1015.2 |
| 20260904203006 | 37 | 246 | 3.2 | 8.0 | 0.00 | 0.00 | 0.00 | 61 | 1015.4 |
| 20260904201505 | 37 | 141 | 3.2 | 9.7 | 0.00 | 0.00 | 0.00 | 60 | 1015.5 |
| 20260904200004 | 37 | 256 | 0.0 | 6.4 | 0.00 | 0.00 | 0.00 | 63 | 1015.7 |
| 20260904194608 | 36 | 178 | 1.6 | 9.7 | 0.00 | 0.00 | 0.00 | 64 | 1015.8 |
| 20260904193053 | 35 | 336 | 0.0 | 6.4 | 0.00 | 0.00 | 0.00 | 68 | 1016.1 |
| 20260904191551 | 36 | 21 | 3.2 | 11.3 | 0.00 | 0.00 | 0.00 | 65 | 1016.2 |
| 20260904190040 | 35 | 353 | 6.4 | 12.9 | 0.00 | 0.00 | 0.00 | 65 | 1016.4 |
| 20260904184534 | 36 | 6 | 6.4 | 12.9 | 0.00 | 0.00 | 0.00 | 65 | 1016.4 |
| 20260904183030 | 35 | 306 | 0.0 | 11.3 | 0.00 | 0.00 | 0.00 | 66 | 1016.4 |
| 20260904181522 | 35 | 353 | 3.2 | 14.5 | 0.00 | 0.00 | 0.00 | 67 | 1016.5 |
| 20260904180015 | 35 | 347 | 1.6 | 11.3 | 0.00 | 0.00 | 0.00 | 70 | 1016.7 |
| 20260904174516 | 35 | 242 | 0.0 | 12.9 | 0.00 | 0.00 | 0.00 | 68 | 1016.8 |
| 20260904173005 | 35 | 282 | 1.6 | 12.9 | 0.00 | 0.00 | 0.00 | 69 | 1017.0 |
| 20260904171609 | 35 | 348 | 4.8 | 12.9 | 0.00 | 0.00 | 0.00 | 69 | 1017.2 |
| 20260904170052 | 34 | 301 | 4.8 | 11.3 | 0.00 | 0.00 | 0.00 | 71 | 1017.2 |
| 20260904164553 | 34 | 298 | 6.4 | 11.3 | 0.00 | 0.00 | 0.00 | 71 | 1017.4 |
| 20260904163041 | 33 | 345 | 11.3 | 17.7 | 0.00 | 0.00 | 0.00 | 71 | 1017.4 |
| 20260904161539 | 33 | 320 | 3.2 | 12.9 | 0.00 | 0.00 | 0.00 | 73 | 1017.4 |
| 20260904160028 | 33 | 277 | 4.8 | 12.9 | 0.00 | 0.00 | 0.00 | 74 | 1017.5 |
| 20260904154522 | 32 | 348 | 3.2 | 12.9 | 0.00 | 0.00 | 0.00 | 76 | 1017.5 |
| 20260904153020 | 32 | 350 | 4.8 | 16.1 | 0.00 | 0.00 | 0.00 | 76 | 1017.5 |
| 20260904151512 | 31 | 357 | 4.8 | 12.9 | 0.00 | 0.00 | 0.00 | 77 | 1017.5 |
| 20260904150024 | 31 | 357 | 1.6 | 11.3 | 0.00 | 0.00 | 0.00 | 78 | 1017.5 |
| 20260904144505 | 31 | 15 | 1.6 | 9.7 | 0.00 | 0.00 | 0.00 | 78 | 1017.5 |
| 20260904143002 | 31 | 260 | 3.2 | 6.4 | 0.00 | 0.00 | 0.00 | 78 | 1017.5 |
| 20260904141609 | 30 | 303 | 1.6 | 9.7 | 0.00 | 0.00 | 0.00 | 79 | 1017.3 |
| 20260904140055 | 30 | 315 | 3.2 | 9.7 | 0.00 | 0.00 | 0.00 | 79 | 1017.2 |
| 20260904134557 | 30 | 242 | 1.6 | 6.4 | 0.00 | 0.00 | 0.00 | 79 | 1017.3 |
| 20260904133046 | 28 | 216 | 3.2 | 6.4 | 0.00 | 0.00 | 0.00 | 80 | 1017.2 |
| 20260904131643 | 28 | 230 | 0.0 | 6.4 | 0.00 | 0.00 | 0.00 | 80 | 1017.3 |
| 20260904130040 | 28 | 251 | 0.0 | 8.0 | 0.00 | 0.00 | 0.00 | 80 | 1017.3 |
| 20260904124538 | 27 | 216 | 0.0 | 1.6 | 0.00 | 0.00 | 0.00 | 81 | 1017.2 |
| 20260904123036 | 25 | 153 | 0.0 | 1.6 | 0.00 | 0.00 | 0.00 | 84 | 1017.2 |
| 20260904121533 | -17 | 0.0 | 0.0 | 0.00 | 0.00 | 0.00 | 1017.2 | ||
| 20260904120027 | -17 | 0.0 | 0.0 | 0.00 | 0.00 | 0.00 | 1017.2 | ||
| 20260904114531 | -17 | 0.0 | 0.0 | 0.00 | 0.00 | 0.00 | 1016.9 | ||
| 20260904113017 | -17 | 0.0 | 0.0 | 0.00 | 0.00 | 0.00 | 1016.9 | ||
| 20260904111522 | -17 | 0.0 | 0.0 | 0.00 | 0.00 | 0.00 | 1016.6 | ||
| 20260904110007 | -17 | 0.0 | 0.0 | 0.00 | 0.00 | 0.00 | 1016.6 | ||
| 20260904104601 | -17 | 0.0 | 0.0 | 0.00 | 0.00 | 0.00 | 1016.5 | ||
| 20260904103056 | -17 | 0.0 | 0.0 | 0.00 | 0.00 | 0.00 | 1016.4 | ||
| 20260904101551 | -17 | 0.0 | 0.0 | 0.00 | 0.00 | 0.00 | 1016.3 | ||
| 20260904100050 | 25 | 152 | 0.0 | 0.0 | 0.00 | 0.00 | 0.00 | 88 | 1016.1 |
| 20260904094545 | 25 | 155 | 0.0 | 0.0 | 0.00 | 0.00 | 0.00 | 88 | 1015.8 |
| 20260904093042 | 25 | 162 | 0.0 | 0.0 | 0.00 | 0.00 | 0.00 | 89 | 1015.9 |
| 20260904091539 | 26 | 156 | 0.0 | 4.8 | 0.00 | 0.00 | 0.00 | 88 | 1015.9 |
| 20260904090036 | 26 | 164 | 1.6 | 4.8 | 0.00 | 0.00 | 0.00 | 88 | 1015.8 |
| 20260904084531 | 26 | 173 | 3.2 | 6.4 | 0.00 | 0.00 | 0.00 | 88 | 1015.8 |
| 20260904083038 | 26 | 175 | 3.2 | 6.4 | 0.00 | 0.00 | 0.00 | 87 | 1015.6 |
| 20260904081525 | 26 | 163 | 1.6 | 3.2 | 0.00 | 0.00 | 0.00 | 87 | 1015.6 |
| 20260904080023 | 26 | 163 | 3.2 | 4.8 | 0.00 | 0.00 | 0.00 | 87 | 1015.6 |
| 20260904074520 | 26 | 157 | 3.2 | 6.4 | 0.00 | 0.00 | 0.00 | 87 | 1015.6 |
| 20260904073023 | 26 | 162 | 1.6 | 4.8 | 0.00 | 0.00 | 0.00 | 88 | 1015.6 |
| 20260904071517 | 26 | 164 | 0.0 | 1.6 | 0.00 | 0.00 | 0.00 | 88 | 1015.7 |
| 20260904070011 | 27 | 169 | 0.0 | 1.6 | 0.00 | 0.00 | 0.00 | 87 | 1015.6 |
| 20260904064506 | 27 | 170 | 0.0 | 4.8 | 0.00 | 0.00 | 0.00 | 86 | 1015.7 |
| 20260904063123 | 27 | 168 | 1.6 | 6.4 | 0.00 | 0.00 | 0.00 | 86 | 1015.6 |
| 20260904061604 | 27 | 161 | 1.6 | 6.4 | 0.00 | 0.00 | 0.00 | 86 | 1015.8 |
| 20260904060101 | 27 | 159 | 0.0 | 3.2 | 0.00 | 0.00 | 0.00 | 87 | 1015.7 |
| 20260904054558 | 27 | 156 | 1.6 | 4.8 | 0.00 | 0.00 | 0.00 | 87 | 1015.7 |
| 20260904053054 | 28 | 153 | 1.6 | 6.4 | 0.00 | 0.00 | 0.00 | 86 | 1015.7 |
| 20260904051556 | 28 | 185 | 3.2 | 8.0 | 0.00 | 0.00 | 0.00 | 86 | 1015.5 |
| 20260904050048 | 28 | 180 | 1.6 | 6.4 | 0.00 | 0.00 | 0.00 | 85 | 1015.4 |
| 20260904044544 | 28 | 173 | 4.8 | 9.7 | 0.00 | 0.00 | 0.00 | 85 | 1015.5 |
| 20260904043046 | 29 | 160 | 4.8 | 11.3 | 0.00 | 0.00 | 0.00 | 84 | 1015.6 |
| 20260904041539 | 29 | 163 | 3.2 | 9.7 | 0.00 | 0.00 | 0.00 | 83 | 1015.6 |
| 20260904040038 | 29 | 151 | 3.2 | 6.4 | 0.00 | 0.00 | 0.00 | 83 | 1015.5 |
| 20260904034542 | 30 | 182 | 3.2 | 9.7 | 0.00 | 0.00 | 0.00 | 82 | 1015.5 |
| 20260904033033 | 30 | 135 | 3.2 | 6.4 | 0.00 | 0.00 | 0.00 | 81 | 1015.4 |
| 20260904031532 | 30 | 190 | 0.0 | 8.0 | 0.00 | 0.00 | 0.00 | 80 | 1015.4 |
| 20260904030031 | 30 | 171 | 3.2 | 8.0 | 0.00 | 0.00 | 0.00 | 80 | 1015.4 |
| 20260904024528 | 30 | 167 | 1.6 | 8.0 | 0.00 | 0.00 | 0.00 | 80 | 1015.3 |
| 20260904023026 | 30 | 181 | 0.0 | 4.8 | 0.00 | 0.00 | 0.00 | 80 | 1015.1 |
| 20260904021528 | 30 | 176 | 0.0 | 6.4 | 0.00 | 0.00 | 0.00 | 79 | 1015.1 |
| 20260904020024 | 30 | 148 | 1.6 | 4.8 | 0.00 | 0.00 | 0.00 | 79 | 1014.9 |
| 20260904014521 | 31 | 161 | 1.6 | 4.8 | 0.00 | 0.00 | 0.00 | 79 | 1014.7 |
| 20260904013019 | 31 | 176 | 0.0 | 1.6 | 0.00 | 0.00 | 0.00 | 78 | 1014.6 |
| 20260904011519 | 31 | 169 | 0.0 | 3.2 | 0.00 | 0.00 | 0.00 | 77 | 1014.6 |
| 20260904010016 | 31 | 168 | 0.0 | 3.2 | 0.00 | 0.00 | 0.00 | 76 | 1014.4 |
| 20260904004513 | 32 | 163 | 0.0 | 1.6 | 0.00 | 0.00 | 0.00 | 75 | 1014.4 |
| 20260904003019 | 32 | 171 | 0.0 | 3.2 | 0.00 | 0.00 | 0.00 | 73 | 1014.3 |
| 20260904001514 | 33 | 179 | 0.0 | 3.2 | 0.00 | 0.00 | 0.00 | 72 | 1014.1 |
| 20260904000007 | 34 | 171 | 1.6 | 6.4 | 0.00 | 0.00 | 0.00 | 69 | 1014.0 |
| 20260903234506 | 35 | 171 | 3.2 | 8.0 | 0.00 | 0.00 | 0.00 | 68 | 1014.1 |
| 20260903233005 | 35 | 256 | 1.6 | 11.3 | 0.00 | 0.00 | 0.00 | 67 | 1014.0 |
| 20260903231515 | 36 | 160 | 1.6 | 6.4 | 0.00 | 0.00 | 0.00 | 64 | 1014.0 |
| 20260903230002 | 36 | 287 | 1.6 | 8.0 | 0.00 | 0.00 | 0.00 | 63 | 1014.0 |
| 20260903224504 | 36 | 137 | 3.2 | 11.3 | 0.00 | 0.00 | 0.00 | 62 | 1014.0 |